[[{"header":{"parameterUnit":"m.s-1","parameterCategory":1,"la1":30.2991,"la2":30.254,"lo1":-89.0895,"lo2":-89.0444,"dy":0.0017,"dx":0.0017,"nx":28,"ny":28,"refTime":"2025-07-10T03:00:00:Z","depth":0,"parameterNumber":2,"parameterNumberName":"U-component_of_WINDS"},"data":[0,0,0,0,0,0,0,0,0,0,0,0,0,0,0,0,0,0,0,0,0,0,0,0,0,0,0,0,0,0,0,0,0,0,0,0,0,0,0,0,0,0,0,0,0,0,0,0,0,0,0,0,0,0,0,0,0,0,0.7921,0.7922,0,0.8011,0.8012,0.8013,0.8056,0.8056,0.8056,0.8056,0.8151,0.8154,0.8156,0,0,0,0,0,0,0,0,0,0,0,0,0,0.7791,0.7794,0.7921,0.7922,0.7923,0.801,0.8012,0.8013,0.8056,0.8056,0.8056,0.8056,0.8151,0.8154,0.8157,0,0,0,0,0,0,0,0,0,0,0,0,0,0.7861,0.7794,0.7921,0.7955,0.7959,0.801,0.8012,0.8013,0.8056,0.8056,0.8056,0.8056,0.815,0.8153,0.8157,0.8182,0,0,0.8169,0.8171,0,0,0,0,0,0,0,0,0.7857,0.7866,0.7949,0.7953,0.7957,0.8022,0.8001,0.807,0.8056,0.8019,0.8056,0.8056,0.8109,0.8116,0.8133,0.8187,0.8191,0.8169,0.8172,0.8173,0.8174,0,0,0,0,0,0,0,0.7852,0.7862,0.7957,0.795,0.7955,0.7967,0.7977,0.8014,0.8063,0.8022,0.8026,0.8035,0.8111,0.8129,0.8135,0.8192,0.8169,0.8173,0.8175,0.8177,0.8272,0.8272,0,0,0,0,0,0,0.7841,0.7858,0.7954,0.7959,0.7906,0.797,0.7981,0.8001,0.8063,0.8072,0.8035,0.8037,0.8122,0.8131,0.8139,0.8173,0.8173,0.8177,0.8179,0.8272,0.8272,0.8272,0,0,0,0,0,0,0.7838,0.7849,0.795,0.791,0.7923,0.7972,0.7995,0.8003,0.8021,0.8073,0.8082,0.8045,0.8123,0.8134,0.8171,0.8177,0.8179,0.8182,0.8272,0.8272,0.8272,0.824,0,0,0,0,0,0,0.7834,0.7848,0.7857,0.7909,0.7925,0.7979,0.7995,0.8005,0.8027,0.803,0.8084,0.8093,0.8124,0.8165,0.8175,0.8182,0.8185,0.8271,0.8272,0.8272,0.8241,0.8239,0.8238,0,0,0,0,0,0.783,0.7845,0.7857,0.7869,0.7937,0.798,0.7989,0.8023,0.8028,0.8038,0.8071,0.8091,0.8174,0.8168,0.818,0.8188,0.8271,0.8272,0.8272,0.8242,0.824,0.8238,0,0,0,0,0,0,0.7794,0.7853,0.7867,0.79,0.7934,0.7987,0.8001,0.8019,0.8054,0.8056,0.8098,0.811,0.8143,0.817,0.8162,0.8216,0.8225,0.8228,0.8198,0.8196,0.8195,0.8188,0.8188,0,0,0,0,0,0.7789,0.7817,0.7868,0.7892,0.7909,0.7951,0.7971,0.7994,0.8032,0.8047,0.8083,0.8121,0.8155,0.8177,0.8212,0.8245,0.8258,0.8257,0.8255,0.8254,0.8256,0.8276,0.8276,0.8274,0.8274,0.8274,0,0,0.7781,0.7817,0.7832,0.7886,0.7915,0.7945,0.7964,0.7994,0.8016,0.8053,0.809,0.8117,0.8162,0.8197,0.8215,0.822,0.8259,0.8254,0.8253,0.8256,0.8276,0.8276,0.8276,0.8274,0.8274,0.8274,0,0,0.7781,0.7811,0.7834,0.7863,0.7907,0.7935,0.7941,0.7991,0.801,0.8048,0.8076,0.8104,0.8162,0.8193,0.8216,0.8228,0.8248,0.8238,0.8231,0.825,0.825,0.825,0.8255,0.8256,0.824,0.824,0.824,0,0.7766,0.781,0.7844,0.7873,0.7896,0.7929,0.7953,0.798,0.8034,0.805,0.8055,0.8129,0.8161,0.8204,0.8207,0.8225,0.8233,0.8232,0.8247,0.8247,0.8248,0.8253,0.8255,0.8238,0.8239,0.8239,0.8239,0,0.7789,0.7819,0.7833,0.7882,0.7907,0.7934,0.7973,0.7995,0.8016,0.8044,0.8082,0.8122,0.8165,0.8177,0.8199,0.8224,0.8226,0.8238,0.8248,0.8246,0.8252,0.8254,0.8236,0.8237,0.8237,0.8238,0,0,0.7769,0.7837,0.7841,0.7864,0.7915,0.794,0.7968,0.801,0.8027,0.8063,0.8089,0.8138,0.8149,0.8176,0.8201,0.8217,0.8225,0.8228,0.823,0.8226,0.8256,0.8246,0.8247,0.8238,0.8239,0.8239,0.8252,0,0.7776,0.7827,0.7859,0.7898,0.7927,0.7959,0.7984,0.8018,0.8045,0.8075,0.8106,0.814,0.8152,0.8168,0.8186,0.822,0.8231,0.8219,0.8264,0.8265,0.8251,0.825,0.824,0.8251,0.8254,0.8255,0.8255,0,0.7792,0.7825,0.7866,0.7914,0.7928,0.7949,0.799,0.8017,0.8058,0.8077,0.8106,0.8131,0.8164,0.817,0.8216,0.8207,0.8228,0.8247,0.8248,0.8254,0.826,0.8256,0.8255,0.8256,0.8258,0.8258,0.8258,0,0.7773,0.7829,0.7861,0.788,0.7936,0.7951,0.7976,0.8016,0.8038,0.8074,0.809,0.813,0.8151,0.8182,0.8218,0.8219,0.8261,0.827,0.8278,0.8277,0.8286,0.8285,0.8288,0.8298,0.8298,0.8298,0.8298,0,0.7778,0.7802,0.7853,0.7873,0.7901,0.7939,0.7966,0.7993,0.8029,0.8055,0.8086,0.811,0.8156,0.8186,0.8215,0.8249,0.8259,0.8276,0.8283,0.8273,0.8271,0.8287,0.8288,0.8299,0.8299,0.8298,0.8298,0,0.7762,0.7797,0.7834,0.7885,0.7898,0.7917,0.796,0.7982,0.801,0.8043,0.8053,0.8099,0.8137,0.8175,0.8226,0.8245,0.8279,0.8289,0.8265,0.8269,0.8275,0.8274,0.8289,0.8293,0.83,0.83,0.83,0,0.7763,0.7782,0.7834,0.7853,0.7877,0.7908,0.7931,0.7969,0.7992,0.8039,0.8055,0.8094,0.8128,0.8187,0.8225,0.8265,0.8276,0.8278,0.8282,0.8272,0.8277,0.8275,0.8277,0.8277,0.8277,0.8276,0.8276,0,0.776,0.7777,0.7809,0.7846,0.7873,0.7905,0.7938,0.7953,0.7997,0.8022,0.806,0.8086,0.8137,0.8177,0.8221,0.8248,0.827,0.8275,0.8279,0.8269,0.8254,0.8263,0.8261,0.8274,0.8274,0.8275,0.8275,0.8275,0.7753,0.7772,0.7811,0.7846,0.7875,0.7905,0.7927,0.7958,0.799,0.8034,0.8055,0.8093,0.8134,0.8195,0.8222,0.8253,0.826,0.8265,0.8267,0.8268,0.8266,0.8249,0.8262,0.8262,0.8262,0.8262,0.8262,0,0.7753,0.778,0.7811,0.7856,0.7883,0.79,0.7938,0.796,0.7993,0.8029,0.8061,0.8105,0.8143,0.8185,0.8226,0.8243,0.8254,0.8253,0.8252,0.8258,0.8258,0.825,0.8243,0.8243,0.8243,0.8243,0.8243,0.8243,0.7756,0.7788,0.781,0.7857,0.7885,0.7921,0.7941,0.797,0.7999,0.8046,0.8077,0.8104,0.8142,0.8186,0.8222,0.8234,0.8248,0.8243,0.8257,0.8256,0.8258,0.8259,0.8252,0.8246,0.8246,0.8255,0.8255,0.8255]},{"header":{"parameterUnit":"m.s-1","parameterCategory":1,"la1":30.2991,"la2":30.254,"lo1":-89.0895,"lo2":-89.0444,"dy":0.0017,"dx":0.0017,"nx":28,"ny":28,"refTime":"2025-07-10T03:00:00:Z","depth":0,"parameterNumber":3,"parameterNumberName":"V-component_of_WINDS"},"data":[0,0,0,0,0,0,0,0,0,0,0,0,0,0,0,0,0,0,0,0,0,0,0,0,0,0,0,0,0,0,0,0,0,0,0,0,0,0,0,0,0,0,0,0,0,0,0,0,0,0,0,0,0,0,0,0,0,0,1.7177,1.7177,0,1.7182,1.7182,1.7182,1.7158,1.7158,1.7157,1.7156,1.716,1.7161,1.7161,0,0,0,0,0,0,0,0,0,0,0,0,0,1.7145,1.7146,1.7177,1.7177,1.7177,1.7181,1.7182,1.7182,1.7159,1.7158,1.7157,1.7156,1.716,1.7161,1.7161,0,0,0,0,0,0,0,0,0,0,0,0,0,1.7155,1.7146,1.7177,1.7166,1.7165,1.7181,1.7182,1.7182,1.7159,1.7158,1.7157,1.7156,1.7159,1.716,1.7162,1.7188,0,0,1.7165,1.7165,0,0,0,0,0,0,0,0,1.7154,1.7156,1.7167,1.7167,1.7166,1.7168,1.7172,1.7184,1.7159,1.7161,1.7156,1.7155,1.7163,1.7164,1.7167,1.7188,1.7189,1.7165,1.7166,1.7166,1.7166,0,0,0,0,0,0,0,1.7154,1.7156,1.7179,1.7168,1.7167,1.716,1.716,1.7174,1.7168,1.7161,1.7159,1.716,1.7163,1.7166,1.7167,1.7189,1.7165,1.7166,1.7167,1.7167,1.723,1.723,0,0,0,0,0,0,1.7155,1.7155,1.7178,1.7179,1.7158,1.7161,1.7162,1.7168,1.7168,1.7167,1.7161,1.7159,1.7165,1.7166,1.7167,1.7197,1.7166,1.7167,1.7168,1.7229,1.723,1.7231,0,0,0,0,0,0,1.7154,1.7157,1.7178,1.7167,1.7169,1.7163,1.7171,1.7169,1.7173,1.7168,1.7166,1.7166,1.7164,1.7166,1.7183,1.7197,1.7168,1.7169,1.7227,1.7229,1.723,1.7258,0,0,0,0,0,0,1.7153,1.7157,1.7168,1.7167,1.717,1.7195,1.7172,1.717,1.7175,1.7172,1.7172,1.7171,1.7163,1.7181,1.7184,1.7198,1.7169,1.7226,1.7228,1.723,1.7255,1.726,1.7264,0,0,0,0,0,1.7152,1.7176,1.7169,1.7172,1.7183,1.7196,1.7197,1.7188,1.7176,1.7186,1.7183,1.7171,1.7195,1.7183,1.7186,1.72,1.7225,1.7227,1.723,1.7254,1.7259,1.7264,0,0,0,0,0,0,1.7179,1.7176,1.7168,1.7192,1.7194,1.7192,1.7205,1.7195,1.7201,1.7198,1.7187,1.7187,1.7205,1.7205,1.7192,1.7225,1.7208,1.7211,1.7225,1.723,1.7234,1.7234,1.717,0,0,0,0,0,1.7187,1.7198,1.7195,1.7216,1.7218,1.7211,1.7216,1.7209,1.7211,1.7212,1.721,1.7212,1.7219,1.7225,1.7232,1.7255,1.7254,1.7266,1.727,1.7274,1.7276,1.7287,1.7292,1.7238,1.7238,1.7238,0,0,1.7205,1.7205,1.7212,1.7221,1.7222,1.7233,1.7212,1.7225,1.7232,1.7214,1.7229,1.7228,1.7229,1.7249,1.7258,1.7249,1.7291,1.7277,1.7279,1.728,1.729,1.7295,1.7299,1.724,1.724,1.7239,0,0,1.7243,1.7244,1.7261,1.7262,1.7264,1.7259,1.7263,1.7262,1.726,1.7276,1.7262,1.727,1.7284,1.7285,1.7287,1.7323,1.7311,1.7325,1.7347,1.7357,1.7361,1.7365,1.7377,1.7381,1.7328,1.7328,1.7328,0,1.7265,1.7281,1.7271,1.7284,1.7288,1.7271,1.7288,1.7289,1.7293,1.7295,1.7285,1.7301,1.7301,1.732,1.7329,1.7331,1.7335,1.7325,1.7362,1.7365,1.7369,1.7379,1.7384,1.733,1.7329,1.7329,1.7329,0,1.7307,1.7318,1.7332,1.7335,1.734,1.7355,1.7346,1.7352,1.7344,1.734,1.7355,1.7354,1.736,1.7364,1.7356,1.7381,1.7375,1.7364,1.7346,1.7375,1.7385,1.739,1.7332,1.7331,1.7331,1.733,0,0,1.7363,1.736,1.7365,1.7365,1.7365,1.7373,1.7386,1.7391,1.7396,1.7399,1.7408,1.742,1.7408,1.7411,1.7403,1.7413,1.7439,1.74,1.7399,1.7406,1.7465,1.7473,1.7478,1.7432,1.7432,1.7433,1.7464,0,1.7399,1.7422,1.7412,1.7435,1.7444,1.7428,1.7439,1.7439,1.7435,1.7441,1.7437,1.7444,1.743,1.7431,1.7439,1.7434,1.7451,1.7432,1.744,1.744,1.744,1.7484,1.7493,1.7523,1.7468,1.7469,1.7469,0,1.7445,1.7448,1.7472,1.7469,1.7472,1.7482,1.7485,1.7492,1.7491,1.7488,1.7489,1.7479,1.749,1.7473,1.7487,1.7474,1.7477,1.7475,1.7476,1.7476,1.7456,1.7484,1.7532,1.7536,1.7476,1.7475,1.7475,0,1.7481,1.7493,1.7508,1.7509,1.7505,1.7513,1.7511,1.751,1.7513,1.7515,1.7517,1.7521,1.7523,1.7525,1.7516,1.7504,1.7531,1.7513,1.7527,1.7527,1.7534,1.7533,1.7582,1.7536,1.7536,1.7536,1.7536,0,1.7523,1.7538,1.7524,1.7534,1.7549,1.7538,1.7553,1.755,1.7548,1.7556,1.7541,1.7549,1.7536,1.7541,1.7534,1.7546,1.7547,1.7544,1.7541,1.7545,1.7545,1.7546,1.7544,1.7537,1.7537,1.7537,1.7536,0,1.7567,1.7559,1.7574,1.7568,1.7567,1.7579,1.7574,1.7582,1.7576,1.7585,1.7587,1.7578,1.7583,1.7574,1.7579,1.7573,1.759,1.7585,1.7591,1.7589,1.7603,1.7602,1.7654,1.766,1.7611,1.7611,1.7612,0,1.7594,1.7605,1.76,1.7604,1.7603,1.761,1.7613,1.7601,1.7604,1.7603,1.7611,1.7615,1.7618,1.7628,1.7621,1.7624,1.7618,1.7636,1.7619,1.7621,1.7618,1.7617,1.7617,1.764,1.7641,1.7641,1.7641,0,1.7642,1.7636,1.7641,1.7644,1.7648,1.765,1.765,1.7654,1.7641,1.7646,1.7651,1.7653,1.7657,1.7661,1.7662,1.766,1.7648,1.7647,1.765,1.7654,1.7656,1.7654,1.76,1.7646,1.7645,1.7645,1.7645,1.7645,1.7678,1.7686,1.7683,1.7688,1.7687,1.7688,1.7694,1.7689,1.7693,1.7696,1.7688,1.7695,1.7692,1.7692,1.769,1.7695,1.7687,1.7692,1.7693,1.7695,1.7697,1.7655,1.7695,1.7695,1.7695,1.7695,1.7695,0,1.7724,1.7721,1.7726,1.7727,1.773,1.7719,1.7718,1.7722,1.7728,1.7726,1.7729,1.7734,1.7738,1.7731,1.7733,1.7737,1.7732,1.7738,1.7738,1.7737,1.7704,1.7701,1.7743,1.7743,1.7743,1.7743,1.7743,1.7743,1.7749,1.7762,1.7756,1.7767,1.7764,1.7771,1.7771,1.7771,1.7769,1.7776,1.7778,1.7773,1.7769,1.777,1.7772,1.777,1.7771,1.7779,1.7775,1.7744,1.774,1.7735,1.7732,1.778,1.778,1.7808,1.7808,1.7808]}]]